User: anonymous   Login
Location: Unspecified
(0.0000°N, 0.0000°E)
Time: 13:50:40
(UTC+00:00)
Language:

APRIZESAT 8 - Orbit

View from above orbital plane
View from above orbital plane
View from above satellite
View from above satellite

Ground track
Ground track

The orbit data is extracted from the following two-line orbital elements,

1 39425U 13066K   17114.70307152 +.00000270 +00000-0 +40545-4 0  9999
2 39425 097.6344 161.4869 0053613 081.6587 279.0700 14.80930722184987
Epoch (UTC): 24 April 2017 16:52:25
Eccentricity: 0.0053613
inclination: 97.6344°
perigee height: 589 km
apogee height: 664 km
right ascension of ascending node: 161.4869°
argument of perigee: 81.6587°
revolutions per day: 14.80930722
mean anomaly at epoch: 279.0700°
orbit number at epoch: 18498

The dashed part of the orbit path shows where the satellite is in the earth's shadow,  

DLR